Location: DaltonSkyGazer Observatory
(42.4858°N, 73.1565°W)
Time: 12:18:42
(UTC-04:00)

Daily predictions for brighter satellites

Satellite Brightness Start Highest point End
(mag) Time Altitude Azimuth Time Altitude Azimuth Time Altitude Azimuth
Cosmos 923 Rocket 4.0 20:57:24 10° NNW 21:02:38 82° ENE 21:07:50 10° SSE
Cosmos 304 Rocket 3.9 20:58:09 10° NNW 21:02:58 67° ENE 21:07:44 10° SSE
SJ-11-01 4.4 21:00:29 10° SSE 21:05:12 89° ENE 21:09:58 10° NNW
CZ-4 DEB 4.2 21:04:03 10° S 21:07:04 38° W 21:10:07 10° NNW
Cosmos 1908 3.2 21:03:13 10° N 21:07:08 80° E 21:11:03 10° S
Delta 2 Rocket 4.1 21:04:54 10° WSW 21:08:06 27° S 21:11:04 10° ESE
SPOT 5 3.3 21:03:48 10° SE 21:08:10 44° ENE 21:12:48 10° N
PSLV R/B 4.3 21:07:07 10° SE 21:09:50 29° ENE 21:12:32 10° N
Cosmos 1674 2.7 21:08:06 10° S 21:11:56 78° E 21:15:49 10° N
Cosmos 773 Rocket 4.4 21:06:51 10° NNW 21:12:01 66° WSW 21:17:11 10° S
Cosmos 2151 3.1 21:09:50 10° S 21:13:56 55° E 21:18:03 10° NNE
deb Chang Zheng 4 3.5 21:10:53 10° NNE 21:15:14 76° ESE 21:19:34 10° S
NOSS 3-1 (A) 4.0 21:11:41 10° S 21:16:56 35° ESE 21:22:38 10° NE
Cosmos 2227 Rocket 3.9 21:14:48 10° SE 21:17:36 14° E 21:20:23 10° ENE
Nimbus 7 Rocket 4.4 21:11:59 10° NNE 21:17:48 63° ESE 21:23:35 10° S
YAOGAN 6 3.7 21:15:53 10° SE 21:19:01 28° ENE 21:22:10 10° N
Cosmos 2058 3.3 21:20:06 10° SSE 21:23:58 42° E 21:27:52 10° NNE
SWAS 4.5 21:20:23 10° NNW 21:24:44 90° SW 21:29:04 10° SSE
Cosmos 1300 3.4 21:21:47 10° N 21:25:23 37° ENE 21:28:45 11° SE
DELTA 2 R/B(2) 3.9 21:26:24 10° SW 21:27:53 29° SSE 21:29:44 11° ESE
Sich 1 4.0 21:26:20 10° SSE 21:30:13 31° E 21:34:07 10° NNE
SL-16 R/B 4.4 21:28:17 10° NNE 21:30:49 13° NE 21:33:21 10° ENE
Cosmos 2333 Rocket 3.5 21:27:34 10° N 21:32:31 29° NE 21:37:23 10° ESE
Cosmos 1633 Rocket 3.9 21:31:20 10° SSE 21:35:13 33° E 21:39:08 10° NNE
Cosmos 1151 Rocket 3.6 21:31:18 10° NNW 21:35:32 57° W 21:39:47 10° S
MetOp-A 4.2 21:31:10 10° SSE 21:36:29 70° ENE 21:41:49 10° N
Cosmos 1437 3.1 21:33:50 10° SSW 21:37:06 67° W 21:40:23 10° N
USA 245 3.3 21:38:04 17° ESE 21:39:21 26° ENE 21:41:21 10° NNE
ATLAS 2AS CENTAUR R/B 3.9 21:33:47 10° SSE 21:39:31 25° ESE 21:45:34 10° ENE
Cosmos 2297 Rocket 3.7 21:42:05 13° SE 21:44:20 16° E 21:47:45 10° ENE
COSMOS 2428 2.7 21:38:55 10° NNW 21:44:38 83° ENE 21:49:36 14° SSE
ARGOS 3.6 21:40:45 13° SE 21:45:20 49° ENE 21:50:31 10° N
ERS-1 Rocket 4.4 21:42:16 10° SSW 21:46:52 36° W 21:51:30 10° NNW
Cosmos 1455 4.1 21:45:10 10° NNE 21:47:39 16° ENE 21:49:25 13° ESE
Envisat 3.5 21:43:28 10° S 21:48:27 58° W 21:53:28 10° NNW
Cosmos 2219 Rocket 2.7 21:43:21 10° NNW 21:48:44 46° ENE 21:53:00 16° SE
Cosmos 1939 Rocket 4.1 21:46:01 10° SSW 21:49:40 37° W 21:53:19 10° NNW
Terra 3.3 21:47:48 13° ESE 21:50:55 23° ENE 21:54:39 10° NNE
Cosmos 1805 Rocket 3.5 21:46:54 10° S 21:51:21 85° ESE 21:55:49 10° N
ATLAS 3B R/B 4.1 21:45:24 10° NNW 21:51:29 29° NE 21:57:16 10° E
ERBS 3.5 21:49:50 13° S 21:52:04 23° SE 21:54:53 10° ENE
USA 32 4.5 21:47:53 10° N 21:52:57 45° E 21:56:44 17° SSE
Cosmos 2315 Rocket 4.2 21:52:32 10° NNW 21:58:43 73° W 22:04:52 10° S
Cosmos 1726 2.1 21:57:19 10° N 22:01:07 80° E 22:03:46 19° SSE
NOSS 3-1 (C) 3.5 21:56:53 10° SW 22:02:46 87° NW 22:09:21 10° NE
SL-08 RB Rocket 3.9 22:00:48 19° SSE 22:03:51 57° ENE 22:08:16 10° N
CZ-4 SHROUD 4.5 22:02:06 11° SSW 22:04:50 37° W 22:07:47 10° NNW
OTV 4 2.8 22:03:49 10° SSW 22:04:07 11° SSW 22:04:07 11° SSW
OAO 2 Rocket 4.2 22:01:25 10° SW 22:06:06 32° S 22:09:07 19° ESE
H-2A R/B 4.0 22:04:08 10° SSW 22:07:58 27° W 22:11:49 10° NW
Cosmos 1937 Rocket 3.6 22:02:55 10° S 22:08:03 58° ESE 22:13:09 10° NNE
Cosmos 220 Rocket 4.2 22:04:30 13° S 22:08:15 53° ESE 22:12:35 10° NNE
Meteor 2-11 Rocket 4.5 22:02:29 10° N 22:08:40 85° W 22:14:04 14° S
Cosmos 1980 4.2 22:04:00 10° NNW 22:09:29 49° ENE 22:13:10 20° SE
Cosmos 1707 Rocket 3.8 22:05:16 10° NNW 22:09:36 66° W 22:13:15 14° S
Meteor 2-10 4.4 22:08:00 10° N 22:13:42 64° ENE 22:17:32 21° SSE
Cosmos 1666 Rocket 3.7 22:09:42 10° SSW 22:14:04 74° W 22:18:32 10° N
Cosmos 2298 Rocket 4.2 22:09:14 10° SSW 22:14:32 77° WNW 22:19:53 10° NNE
Cosmos 2219 4.1 22:11:06 10° SW 22:16:41 51° WNW 22:22:18 10° NNE
Tiangong 1 0.9 22:14:02 10° WSW 22:17:07 67° SSE 22:18:55 22° E
Cosmos 990 Rocket 4.2 22:13:36 17° S 22:17:19 49° ESE 22:22:17 10° NNE
CZ-4 R/B 3.8 22:13:00 10° NNE 22:17:57 76° ESE 22:22:06 14° S
Nadezhda 1 Rocket 4.2 22:12:38 10° N 22:18:38 56° E 22:22:31 22° SSE
Meteor 1-4 Rocket 2.5 22:15:26 10° N 22:19:12 86° W 22:21:09 26° S
Cosmos 2237 Rocket 2.5 22:16:13 10° NNW 22:21:50 56° ENE 22:25:15 24° SE
CZ-4C R/B 3.1 22:21:28 32° SE 22:22:52 63° ENE 22:26:19 10° N
Cosmos 1271 Rocket 2.8 22:22:39 10° NNW 22:26:31 77° W 22:28:33 27° S
Cosmos 2082 3.9 22:23:04 17° S 22:27:24 53° ESE 22:32:57 10° NNE
Cosmos 1470 Rocket 3.6 22:25:29 26° SSE 22:27:44 60° E 22:32:00 10° NNE
Cosmos 1933 Rocket 3.7 22:26:30 26° SSE 22:28:51 60° E 22:33:15 10° NNE
SL-08 R/B 4.5 22:23:35 13° S 22:29:16 88° E 22:35:36 10° N
CZ-4B R/B 4.0 22:24:45 10° N 22:29:58 62° WNW 22:35:04 10° SSW
Cosmos 2360 Rocket 4.3 22:27:56 10° NW 22:31:51 20° W 22:35:46 10° SW
Cosmos 1745 Rocket 3.9 22:27:24 16° S 22:32:30 81° E 22:38:41 10° N
NOSS 0 Rocket 3.9 22:27:30 10° NNW 22:33:42 89° SW 22:37:22 26° SSE
Cosmos 1703 3.4 22:32:28 21° SSW 22:34:58 74° W 22:38:54 10° N
Iridium 2 3.6 22:33:22 28° S 22:35:19 87° W 22:39:11 10° N
NOAA 11 4.5 22:32:40 20° S 22:36:29 64° WSW 22:41:56 10° NNW
H-2A R/B 2.1 22:36:57 28° SSE 22:39:54 77° ENE 22:45:22 10° N
Cosmos 1709 Rocket 4.5 22:37:57 26° SE 22:40:45 41° E 22:46:25 10° NNE
Cosmos 1626 2.1 22:41:26 41° SSE 22:42:34 67° E 22:46:19 10° NNE
SeaSat 1 4.2 22:46:37 13° E 22:49:36 22° NE 22:53:23 10° N
Cosmos 1386 Rocket 4.3 22:51:00 23° S 22:54:53 88° E 23:00:56 10° N
Lacrosse 4 Rocket 2.4 22:52:44 10° NNW 22:56:56 41° NE 22:58:32 29° ESE
Cosmos 1125 Rocket 3.8 22:56:55 36° SSE 22:58:40 50° ESE 23:03:48 10° NNE
Cosmos 2227 Rocket 2.2 22:55:43 13° SSW 23:00:51 81° WNW 23:06:34 10° NNE
Cosmos 389 Rocket 4.2 22:58:17 10° NNE 23:01:04 21° ENE 23:01:12 21° ENE
Cosmos 1862 Rocket 3.9 23:04:16 10° NNW 23:08:31 56° W 23:10:03 36° SSW
CZ-4C R/B 4.4 23:03:15 10° NNW 23:08:55 27° NE 23:15:04 10° E
Cosmos 2181 Rocket 4.2 23:02:55 10° N 23:09:16 64° E 23:12:03 35° SSE
CARTOSAT-1 4.0 23:08:07 36° SSW 23:09:36 55° W 23:13:51 10° NNW
Spot 2 4.3 23:04:33 10° NNE 23:09:41 88° ESE 23:11:50 35° SSW
COSMOS 2455 2.9 23:05:25 10° NNW 23:11:28 72° ENE 23:14:03 35° SE
SAR-Lupe-2 4.0 23:15:11 47° SW 23:15:40 51° W 23:19:11 10° NNW
SL-16 R/B 2.3 23:10:22 10° NNW 23:16:03 69° ENE 23:18:12 39° SE
Cosmos 1933 3.3 23:12:33 10° N 23:16:37 73° E 23:17:12 61° SE
Cosmos 2333 Rocket 2.9 23:11:30 10° NW 23:16:59 47° WSW 23:19:24 30° SSW
Cosmos 372 Rocket 4.4 23:18:28 40° SE 23:19:18 44° ESE 23:24:16 10° NNE
Cosmos 1455 3.5 23:20:03 10° NNW 23:23:29 33° W 23:24:28 28° WSW
FALCON 9 R/B 3.5 23:03:20 10° W 23:24:10 53° SSW 23:27:16 34° SE
Cosmos 44 Rocket 3.7 23:23:54 43° SE 23:24:16 44° ESE 23:29:14 10° NE
BREEZE-M DEB (TANK) 2.6 23:23:30 10° WNW 23:25:19 60° WNW 23:25:19 60° WNW
Cosmos 2297 Rocket 2.4 23:23:49 21° SW 23:27:43 71° WNW 23:33:23 10° NNE
Terra 2.7 23:26:42 29° SW 23:28:25 40° W 23:32:54 10° NNW
ERBS 3.9 23:25:29 10° WSW 23:28:45 37° NW 23:32:01 10° NNE
ATLAS 2AS CENTAUR R/B 3.1 23:22:09 10° SW 23:29:41 78° NW 23:37:49 10° NE
Cosmos 2219 Rocket 3.7 23:27:51 10° NW 23:32:23 26° WSW 23:34:43 20° SW
H-2A R/B 4.1 23:29:35 10° NE 23:32:31 22° E 23:32:31 22° E
Cosmos 1869 Rocket 3.5 23:36:29 63° S 23:37:11 85° E 23:41:41 10° N
Aureole 2 Rocket 3.7 23:35:27 10° N 23:38:00 31° NE 23:38:00 31° NE
ATLAS 3B R/B 2.6 23:35:55 10° NW 23:42:55 75° WSW 23:45:16 43° SSE
CZ-4C R/B 4.1 23:45:36 35° ENE 23:45:36 35° ENE 23:48:40 10° N
Cosmos 1900 4.5 23:40:46 10° NW 23:45:38 56° WSW 23:46:21 51° SSW
COS B Rocket 3.4 23:45:25 10° N 23:49:17 68° W 23:49:36 64° WSW
Cosmos 1603 4.2 23:44:31 10° NNW 23:50:04 51° ENE 23:52:01 36° ESE
ALOS 2 3.2 23:52:44 41° E 23:53:14 43° ENE 23:57:24 10° N
Tiangong 1 3.8 23:50:36 10° W 23:51:01 13° W 23:51:01 13° W
